Regional Weather Roundup
Issued by NWS

Home | Current Version | Previous Version | Text Only | Print | Product List | Glossary On
Versions: 1 2 3 4 5 6 7 8 9 10 11 12 13 14 15 16 17 18 19 20 21 22 23 24 25 26 27
000
ASUS45 KBOU 290507
RWRCO

WEATHER ROUNDUP FOR COLORADO
NATIONAL WEATHER SERVICE DENVER/BOULDER CO
1100 PM MDT SUN AUG 28 2016

NOTE: "FAIR" INDICATES FEW OR NO CLOUDS BELOW 12000 FEET WITH NO
SIGNIFICANT WEATHER AND/OR OBSTRUCTIONS TO VISIBILITY.

COZ001>005-013-030-031-290600-
...NORTHWEST COLORADO...

CITY           SKY/WX    TMP DP  RH WIND       PRES   REMARKS
CRAIG          FAIR      58  40  51 E8        30.32R
HAYDEN         FAIR      59  36  41 E13       30.34S
MEEKER         FAIR      54  43  66 NE7       30.33S
MOUNT WERNER   NOT AVBL
STEAMBOAT SPGS FAIR      54  39  57 CALM      30.37S
WALDEN         FAIR      48  36  61 SE7       30.46F
$$

COZ006>008-011-290600-
...WEST CENTRAL VALLEYS...

CITY           SKY/WX    TMP DP  RH WIND       PRES   REMARKS
GRAND JUNCTION FAIR      67  44  43 S14       30.24S
MONTROSE       FAIR      61  45  55 SE12      30.33S
EAGLE          MOCLDY    55  46  71 CALM      30.41S
RIFLE          FAIR      61  50  67 SW3       30.29F
DELTA          NOT AVBL
NUCLA          FAIR     N/A N/A N/A E8        30.34F
$$

COZ017>023-064>068-290600-
...SOUTHWEST COLORADO...

CITY           SKY/WX    TMP DP  RH WIND       PRES   REMARKS
DURANGO        FAIR      55  41  59 CALM      30.31F
CORTEZ         FAIR      52  47  83 SE3       30.27S
PAGOSA SPRINGS FAIR      52  41  67 CALM      30.38F
TELLURIDE      FAIR      46  42  87 CALM      30.49F
WOLF CREEK PAS MOCLDY    37  34  87 MISG      30.65F
$$

COZ009-010-012-014-032>034-037-058>063-290600-
...CENTRAL COLORADO...

CITY           SKY/WX    TMP DP  RH WIND       PRES   REMARKS
ASPEN          FAIR      53  40  61 SE9       30.44S
BUENA VISTA    LGT RAIN  53  44  71 CALM      30.51S
COPPER MTN     FAIR      45  32  61 S5        30.69F
BERTHOUD PASS  MOCLDY    39  27  60 E14       30.71F
COTTONWOOD PAS CLOUDY    48  41  76 CALM      30.60F
GUNNISON       FAIR      52  43  71 N6        30.46F
KREMMLING      FAIR      50  41  71 CALM      30.46S
LEADVILLE      FAIR      42  39  89 W5        30.58R
MONARCH PASS   FOG       37  36  93 E30G39    30.74F VSB<1/4
SALIDA         FAIR      56  47  71 CALM      30.56S
SUNLIGHT       CLOUDY    45  39  81 SW7       30.63S
WILKERSON PASS RAIN      39  37  93 W3        30.69S
$$

COZ069>075-290600-
...SAN LUIS VALLEY/SANGRE DE CRISTO MOUNTAINS...

CITY           SKY/WX    TMP DP  RH WIND       PRES   REMARKS
ALAMOSA        CLOUDY    55  47  74 N13       30.38S
LA VETA PASS   CLOUDY    45  41  87 W6        30.56S
SAGUACHE       CLOUDY    59  39  47 NW6       30.45R
$$

COZ035-036-038>040-290600-
...NORTHERN COLORADO FRONT RANGE...

CITY           SKY/WX    TMP DP  RH WIND       PRES   REMARKS
DENVER INTL AP CLOUDY    66  44  45 NE18      30.27S
DMNS CITY PARK   N/A     65  47  52 SE5G12    30.30R
AURORA         MOCLDY    63  46  52 E8        30.31R
FRONT RANGE AP NOT AVBL
ERIE MUNI ARPT FAIR      67  45  45 CALM      30.27S
BOULDER MUN AP FAIR      68  45  42 S3        30.28S
CENTENNIAL     MOCLDY    64  46  52 SE6       30.33R
BROOMFIELD     NOT AVBL
FORT COLLINS   FAIR      64  48  55 W6        30.24F
LONGMONT       FAIR      66  48  53 W5        30.28F
$$

COZ041-046-047-076>085-087-088-290600-
...PIKES PEAK/PALMER DIVIDE AND SOUTHERN FOOTHILLS...

CITY           SKY/WX    TMP DP  RH WIND       PRES   REMARKS
COLO. SPRINGS  TSTM      56  54  93 NW13G21   30.41R FOG
A. F. ACADEMY  TSTM      54  50  84 W8        30.42R
SCHRIEVER AFB  NOT AVBL
ELLICOTT       NOT AVBL
FALCON         TSTM      53  50  91 W21G26    30.43R
FORT CARSON    HVY RAIN  59  52  77 NW24G35   30.34R
LIMON          TSTM      59  55  87 S8        30.30R
MONUMENT HILL  TSTM      52  50  93 S9        30.42R
TRINIDAD       FAIR      65  48  54 SE9       30.25R
$$

COZ042>045-048>051-090-091-290600-
...NORTHEAST COLORADO...

CITY           SKY/WX    TMP DP  RH WIND       PRES   REMARKS
GREELEY ARPT   FAIR      66  45  45 W7        30.21F
AKRON          FAIR      69  45  41 W10       30.22F
BURLINGTON     FAIR      67  59  75 S12       30.20R
WRAY           NOT AVBL
STERLING       FAIR      72  45  37 SW6       30.14F
HOLYOKE        FAIR      63  57  82 SE5       30.18S
FORT MORGAN    FAIR      64  50  60 W5        30.18F
$$

COZ086-089-092>099-290600-
...SOUTHEAST COLORADO...

CITY           SKY/WX    TMP DP  RH WIND       PRES   REMARKS
PUEBLO         LGT RAIN  62  52  69 NW17      30.27R
LA JUNTA       FAIR      72  57  59 E8        30.17R
LAMAR          FAIR      70  60  70 SE6       30.14R
SPRINGFIELD      N/A     63  61  93 S10       30.20S
$$




USA.gov is the U.S. government's official web portal to all federal, state and local government web resources and services.